Flag for Canada Weather past 2 weeks in Portage la Prairie, Manitoba, Canada

Now
66 °F

Fog.


Feels Like: 66 °F
Forecast: 64 / 72 °F
Wind: 13 mph from North

Location: Portage Southport A

Current Time: Sep 4, 2015 at 10:07:20 AM

Latest Report: Sep 4, 2015 at 9:00 AM


Visibility: 6 mi

Pressure: 29.81 "Hg

Humidity: 100%

Dew point: 66 °F

Location of Portage la PrairieLocation

Historic Weather in Portage la Prairie — Graph

°F

Portage la Prairie temperature yesterday

Maximum temperature yesterday: 88 °F (at 6:00 PM)
Minimum temperature yesterday: 66 °F (at 6:00 AM)
Average temperature yesterday: 76 °F

Past Weeks' High & Low Weather Summary

 TemperatureHumidityPressure
High90 °F (Sep 2, 4:00 PM)100% (Aug 21, 6:00 AM)30.24 "Hg (Aug 21, 6:00 AM)
Low45 °F (Aug 25, 6:00 AM)25% (Sep 1, 4:00 PM)29.59 "Hg (Aug 31, 6:00 AM)
Average69 °F70%29.87 "Hg
* Reported Aug 20 9:00 AM — Sep 4 9:00 AM, Portage la Prairie, Weather by CustomWeather, © 2015

Note: Actual official high and low records may vary slightly from our data, if they occured in-between our weather recording intervals... More about our weather records

Advertising

Portage la Prairie weather history for previous 24 hours

 ConditionsComfort  
Time TempWeatherWind HumidityBarometerVisibility
9:00 AM
Fri, Sep 4
66 °FFog.13 mph100%29.81 "Hg6 mi
8:00 AM68 °FDrizzle. Fog.18 mph94%29.81 "Hg1 mi
7:49 AM68 °FFog.15 mph94%29.82 "Hg2 mi
7:00 AM70 °FLow clouds.7 mph88%29.79 "Hg10 mi
6:00 AM72 °FMostly cloudy.8 mph94%29.77 "Hg12 mi
10:00 PM
Thu, Sep 3
75 °FPassing clouds.8 mph89%29.68 "Hg10 mi
9:00 PM79 °FBroken clouds.3 mph84%29.67 "Hg10 mi
8:00 PM82 °FPartly sunny.6 mph74%29.66 "Hg10 mi
7:00 PM86 °FPartly sunny.5 mph66%29.65 "Hg12 mi
6:00 PM88 °FScattered clouds.7 mph59%29.68 "Hg12 mi
5:00 PM86 °FPassing clouds.14 mph66%29.66 "Hg12 mi
4:00 PM84 °FPassing clouds.13 mph70%29.68 "Hg10 mi
3:00 PM81 °FPassing clouds.21 mph74%29.68 "Hg10 mi
2:00 PM75 °FOvercast.18 mph89%29.71 "Hg8 mi
1:00 PM73 °FFog.12 mph94%29.74 "Hg5 mi
12:00 PM72 °FFog.9 mph94%29.75 "Hg5 mi
11:00 AM72 °FFog.10 mph94%29.75 "Hg4 mi
10:00 AM72 °FFog.13 mph94%29.75 "Hg3 mi
Weather by CustomWeather, © 2015

See weather overviewHow to use our weather pages